Flight Track Log - Related Links

Times and Time Zones

All times are in EDT time to prevent confusion due to time zone crossing. See the OPT429 flight status page for this flight to view local times or setup timezone preferences in your user account.

Time Position Orientation Groundspeed Altitude Reporting Facility
EDT Latitude Longitude Course Direction KTS MPH feet Rate Location/Type
02:49PM 41.3375 -82.1983 314° West 143 165 2,000  Level Cleveland Center
02:50PM 41.3653 -82.2364 314° West 228 262 3,600 1,676 Climbing Cleveland Center
02:51PM 41.3894 -82.2392 355° North 259 298 3,900 3,259 Climbing Cleveland Center
02:52PM 41.4636 -82.2264 North 271 312 8,000 3,750 Climbing Cleveland Center
02:52PM 41.4908 -82.1767 54° Northeast 294 338 9,900 1,935 Climbing Cleveland Center
02:54PM 41.5469 -82.0294 63° Northeast 310 357 12,000 1,342 Climbing Cleveland Center
02:55PM 41.6014 -81.9164 57° Northeast 349 402 13,300 2,081 Climbing Cleveland Center
02:56PM 41.6539 -81.8047 58° Northeast 353 406 16,300 2,839 Climbing Cleveland Center
02:58PM 41.7583 -81.5858 57° Northeast 314 361 22,100 2,452 Climbing Cleveland Center
02:59PM 41.7706 -81.4631 82° East 337 388 23,900 1,645 Climbing Cleveland Center
03:00PM 41.7753 -81.3328 87° East 341 392 25,500 1,500 Climbing Cleveland Center
03:01PM 41.7800 -81.1944 87° East 362 417 27,000 1,452 Climbing Cleveland Center
03:02PM 41.7853 -81.0506 87° East 379 436 28,500 1,440 Climbing Cleveland Center
03:03PM 41.7911 -80.9044 87° East 388 447 30,000 1,440 Climbing Cleveland Center
03:04PM 41.7969 -80.7508 87° East 405 466 31,500 1,403 Climbing Cleveland Center
03:05PM 41.8028 -80.5967 87° East 408 470 32,900 1,548 Climbing Cleveland Center
03:06PM 41.8086 -80.4122 88° East 420 483 34,700 1,403 Climbing Cleveland Center
03:07PM 41.8142 -80.2564 87° East 419 482 35,800 629 Climbing Cleveland Center
03:08PM 41.8181 -80.0914 88° East 440 506 36,000 161 Climbing Cleveland Center
03:10PM 41.8297 -79.7592 88° East 438 504 36,300 642 Climbing Cleveland Center
03:11PM 41.8325 -79.6025 89° East 418 481 38,000 1,392 Climbing Cleveland Center
03:12PM 41.8367 -79.4533 88° East 405 466 39,200 1,210 Climbing Cleveland Center
03:13PM 41.8406 -79.2714 88° East 402 463 40,500 871 Climbing Cleveland Center
03:14PM 41.8422 -79.1419 89° East 399 459 41,000 242 Climbing Cleveland Center
03:15PM 41.8458 -78.9908 88° East 404 465 41,000  Level Cleveland Center
03:16PM 41.8508 -78.8172 88° East 425 489 41,000  Level Cleveland Center
03:18PM 41.8531 -78.6561 89° East 429 494 41,000  Level Cleveland Center
03:19PM 41.8564 -78.4619 89° East 435 501 41,000  Level Cleveland Center
03:20PM 41.8597 -78.3039 88° East 432 497 41,000 -576 Level Cleveland Center
03:21PM 41.8611 -78.1428 89° East 431 496 39,800 -1,887 Descending Cleveland Center
03:22PM 41.8639 -77.9814 89° East 431 496 37,100 -2,323 Descending Cleveland Center
03:23PM 41.8569 -77.8211 93° East 432 497 35,000 -1,016 Descending Cleveland Center
03:24PM 41.8175 -77.6708 109° East 431 496 35,000  Level Cleveland Center
03:25PM 41.7692 -77.4911 110° East 430 495 35,000 -516 Level Cleveland Center
03:27PM 41.6831 -77.1681 110° East 443 510 33,400 -903 Descending Cleveland Center
03:28PM 41.6414 -77.0147 110° East 443 510 32,200 -1,056 Descending Cleveland Center
03:29PM 41.6033 -76.8742 110° East 442 509 31,200 -1,141 Descending Cleveland Center
03:30PM 41.5458 -76.6664 110° East 441 507 29,500 -1,261 Descending New York Center
03:31PM 41.5056 -76.5106 109° East 441 507 28,300 -1,210 Descending New York Center
03:32PM 41.4628 -76.3603 111° Southeast 436 502 27,100 -1,240 Descending New York Center
03:33PM 41.4186 -76.1878 109° East 441 507 25,800 -1,377 Descending New York Center
03:34PM 41.3711 -76.0403 113° Southeast 441 507 24,300 -2,182 Descending New York Center
03:35PM 41.3261 -75.8819 111° Southeast 441 507 21,400 -2,800 Descending New York Center
03:36PM 41.2828 -75.7239 110° East 447 514 18,700 -1,966 Descending New York Center
03:37PM 41.2403 -75.5939 113° Southeast 438 504 17,500 -1,550 Descending New York Center
03:38PM 41.1883 -75.4358 114° Southeast 418 481 15,600 -2,672 Descending New York Center
03:39PM 41.1436 -75.3006 114° Southeast 411 473 12,200 -2,528 Descending New York Center
03:41PM 41.0722 -75.0867 114° Southeast 328 377 8,100 -1,933 Descending New York Center
03:42PM 41.0383 -74.9881 114° Southeast 295 339 6,400 -1,050 Descending New York Center
03:43PM 41.0086 -74.8900 112° Southeast 286 329 6,000 -347 Descending New York Center
03:44PM 40.9811 -74.7811 108° East 281 323 5,700 -667 Descending New York Center
03:46PM 40.9408 -74.6086 107° East 240 276 4,000 -791 Descending New York Center
03:47PM 40.9247 -74.5308 105° East 240 276 3,300 -497 Descending New York Center
03:49PM 40.8875 -74.3833 108° East 208 239 2,500 -674 Descending New York Center
03:50PM 40.8442 -74.3728 170° South 148 170 1,300 5,167 Descending New York Center
03:52PM 40.7775 -74.3775 183° South 143 165 18,000 5,598 Climbing New York Center
03:53PM 40.7400 -74.3753 177° South 143 165 18,000  Level New York Center
03:54PM 40.7044 -74.3736 178° South 143 165 18,000  Level New York Center
03:56PM 40.6817 -74.3722 207° Southwest 143 165 18,000  Level New York Center

Login

Don't have an account? Register now (free) for customized features, flight alerts, and more!